Index of /20260426/WXO-DD/model_rdps/10km/18/061
Name Last modified Size Description
Parent Directory -
20260426T18Z_MSC_RDPS_AbsoluteVorticity_IsbL-0250_RLatLon0.09_PT061H.grib2 2026-04-26 21:39 636K
20260426T18Z_MSC_RDPS_AbsoluteVorticity_IsbL-0500_RLatLon0.09_PT061H.grib2 2026-04-26 21:39 571K
20260426T18Z_MSC_RDPS_AbsoluteVorticity_IsbL-0700_RLatLon0.09_PT061H.grib2 2026-04-26 21:39 617K
20260426T18Z_MSC_RDPS_AbsoluteVorticity_IsbL-0850_RLatLon0.09_PT061H.grib2 2026-04-26 21:39 769K
20260426T18Z_MSC_RDPS_AirTemp_AGL-120m_RLatLon0.09_PT061H.grib2 2026-04-26 21:39 388K
20260426T18Z_MSC_RDPS_AirTemp_AGL-2m_RLatLon0.09_PT061H.grib2 2026-04-26 21:39 621K
20260426T18Z_MSC_RDPS_AirTemp_AGL-40m_RLatLon0.09_PT061H.grib2 2026-04-26 21:39 403K
20260426T18Z_MSC_RDPS_AirTemp_AGL-80m_RLatLon0.09_PT061H.grib2 2026-04-26 21:39 395K
20260426T18Z_MSC_RDPS_AirTemp_IsbL-0001_RLatLon0.09_PT061H.grib2 2026-04-26 21:39 299K
20260426T18Z_MSC_RDPS_AirTemp_IsbL-0005_RLatLon0.09_PT061H.grib2 2026-04-26 21:39 295K
20260426T18Z_MSC_RDPS_AirTemp_IsbL-0010_RLatLon0.09_PT061H.grib2 2026-04-26 21:39 304K
20260426T18Z_MSC_RDPS_AirTemp_IsbL-0020_RLatLon0.09_PT061H.grib2 2026-04-26 21:39 319K
20260426T18Z_MSC_RDPS_AirTemp_IsbL-0030_RLatLon0.09_PT061H.grib2 2026-04-26 21:39 340K
20260426T18Z_MSC_RDPS_AirTemp_IsbL-0050_RLatLon0.09_PT061H.grib2 2026-04-26 21:39 320K
20260426T18Z_MSC_RDPS_AirTemp_IsbL-0100_RLatLon0.09_PT061H.grib2 2026-04-26 21:39 434K
20260426T18Z_MSC_RDPS_AirTemp_IsbL-0150_RLatLon0.09_PT061H.grib2 2026-04-26 21:39 434K
20260426T18Z_MSC_RDPS_AirTemp_IsbL-0175_RLatLon0.09_PT061H.grib2 2026-04-26 21:39 421K
20260426T18Z_MSC_RDPS_AirTemp_IsbL-0200_RLatLon0.09_PT061H.grib2 2026-04-26 21:39 424K
20260426T18Z_MSC_RDPS_AirTemp_IsbL-0225_RLatLon0.09_PT061H.grib2 2026-04-26 21:39 424K
20260426T18Z_MSC_RDPS_AirTemp_IsbL-0250_RLatLon0.09_PT061H.grib2 2026-04-26 21:39 435K
20260426T18Z_MSC_RDPS_AirTemp_IsbL-0275_RLatLon0.09_PT061H.grib2 2026-04-26 21:39 417K
20260426T18Z_MSC_RDPS_AirTemp_IsbL-0300_RLatLon0.09_PT061H.grib2 2026-04-26 21:39 422K
20260426T18Z_MSC_RDPS_AirTemp_IsbL-0350_RLatLon0.09_PT061H.grib2 2026-04-26 21:39 431K
20260426T18Z_MSC_RDPS_AirTemp_IsbL-0400_RLatLon0.09_PT061H.grib2 2026-04-26 21:39 431K
20260426T18Z_MSC_RDPS_AirTemp_IsbL-0450_RLatLon0.09_PT061H.grib2 2026-04-26 21:39 400K
20260426T18Z_MSC_RDPS_AirTemp_IsbL-0500_RLatLon0.09_PT061H.grib2 2026-04-26 21:39 409K
20260426T18Z_MSC_RDPS_AirTemp_IsbL-0550_RLatLon0.09_PT061H.grib2 2026-04-26 21:39 426K
20260426T18Z_MSC_RDPS_AirTemp_IsbL-0600_RLatLon0.09_PT061H.grib2 2026-04-26 21:39 441K
20260426T18Z_MSC_RDPS_AirTemp_IsbL-0650_RLatLon0.09_PT061H.grib2 2026-04-26 21:39 456K
20260426T18Z_MSC_RDPS_AirTemp_IsbL-0700_RLatLon0.09_PT061H.grib2 2026-04-26 21:39 480K
20260426T18Z_MSC_RDPS_AirTemp_IsbL-0750_RLatLon0.09_PT061H.grib2 2026-04-26 21:39 404K
20260426T18Z_MSC_RDPS_AirTemp_IsbL-0800_RLatLon0.09_PT061H.grib2 2026-04-26 21:39 447K
20260426T18Z_MSC_RDPS_AirTemp_IsbL-0850_RLatLon0.09_PT061H.grib2 2026-04-26 21:39 502K
20260426T18Z_MSC_RDPS_AirTemp_IsbL-0875_RLatLon0.09_PT061H.grib2 2026-04-26 21:39 520K
20260426T18Z_MSC_RDPS_AirTemp_IsbL-0900_RLatLon0.09_PT061H.grib2 2026-04-26 21:39 528K
20260426T18Z_MSC_RDPS_AirTemp_IsbL-0925_RLatLon0.09_PT061H.grib2 2026-04-26 21:39 522K
20260426T18Z_MSC_RDPS_AirTemp_IsbL-0950_RLatLon0.09_PT061H.grib2 2026-04-26 21:39 522K
20260426T18Z_MSC_RDPS_AirTemp_IsbL-0970_RLatLon0.09_PT061H.grib2 2026-04-26 21:39 513K
20260426T18Z_MSC_RDPS_AirTemp_IsbL-0985_RLatLon0.09_PT061H.grib2 2026-04-26 21:39 499K
20260426T18Z_MSC_RDPS_AirTemp_IsbL-1000_RLatLon0.09_PT061H.grib2 2026-04-26 21:39 482K
20260426T18Z_MSC_RDPS_AirTemp_IsbL-1015_RLatLon0.09_PT061H.grib2 2026-04-26 21:39 481K
20260426T18Z_MSC_RDPS_Albedo_Sfc_RLatLon0.09_PT061H.grib2 2026-04-26 21:39 161K
20260426T18Z_MSC_RDPS_CAPE_Sfc_RLatLon0.09_PT061H.grib2 2026-04-26 21:39 1.7M
20260426T18Z_MSC_RDPS_CIN_Sfc_RLatLon0.09_PT061H.grib2 2026-04-26 21:39 1.1M
20260426T18Z_MSC_RDPS_CloudWater_EAtm_RLatLon0.09_PT061H.grib2 2026-04-26 21:39 218K
20260426T18Z_MSC_RDPS_ConvectivePrecip-Accum_Sfc_RLatLon0.09_PT061H.grib2 2026-04-26 21:39 1.2M
20260426T18Z_MSC_RDPS_DewPointDepression_AGL-2m_RLatLon0.09_PT061H.grib2 2026-04-26 21:39 389K
20260426T18Z_MSC_RDPS_DewPointDepression_IsbL-0001_RLatLon0.09_PT061H.grib2 2026-04-26 21:39 193
20260426T18Z_MSC_RDPS_DewPointDepression_IsbL-0005_RLatLon0.09_PT061H.grib2 2026-04-26 21:39 193
20260426T18Z_MSC_RDPS_DewPointDepression_IsbL-0010_RLatLon0.09_PT061H.grib2 2026-04-26 21:39 193
20260426T18Z_MSC_RDPS_DewPointDepression_IsbL-0020_RLatLon0.09_PT061H.grib2 2026-04-26 21:39 193
20260426T18Z_MSC_RDPS_DewPointDepression_IsbL-0030_RLatLon0.09_PT061H.grib2 2026-04-26 21:39 193
20260426T18Z_MSC_RDPS_DewPointDepression_IsbL-0050_RLatLon0.09_PT061H.grib2 2026-04-26 21:39 86K
20260426T18Z_MSC_RDPS_DewPointDepression_IsbL-0100_RLatLon0.09_PT061H.grib2 2026-04-26 21:39 130K
20260426T18Z_MSC_RDPS_DewPointDepression_IsbL-0150_RLatLon0.09_PT061H.grib2 2026-04-26 21:39 152K
20260426T18Z_MSC_RDPS_DewPointDepression_IsbL-0175_RLatLon0.09_PT061H.grib2 2026-04-26 21:39 182K
20260426T18Z_MSC_RDPS_DewPointDepression_IsbL-0200_RLatLon0.09_PT061H.grib2 2026-04-26 21:39 220K
20260426T18Z_MSC_RDPS_DewPointDepression_IsbL-0225_RLatLon0.09_PT061H.grib2 2026-04-26 21:39 267K
20260426T18Z_MSC_RDPS_DewPointDepression_IsbL-0250_RLatLon0.09_PT061H.grib2 2026-04-26 21:39 305K
20260426T18Z_MSC_RDPS_DewPointDepression_IsbL-0275_RLatLon0.09_PT061H.grib2 2026-04-26 21:39 310K
20260426T18Z_MSC_RDPS_DewPointDepression_IsbL-0300_RLatLon0.09_PT061H.grib2 2026-04-26 21:39 326K
20260426T18Z_MSC_RDPS_DewPointDepression_IsbL-0350_RLatLon0.09_PT061H.grib2 2026-04-26 21:39 329K
20260426T18Z_MSC_RDPS_DewPointDepression_IsbL-0400_RLatLon0.09_PT061H.grib2 2026-04-26 21:39 337K
20260426T18Z_MSC_RDPS_DewPointDepression_IsbL-0450_RLatLon0.09_PT061H.grib2 2026-04-26 21:39 343K
20260426T18Z_MSC_RDPS_DewPointDepression_IsbL-0500_RLatLon0.09_PT061H.grib2 2026-04-26 21:39 352K
20260426T18Z_MSC_RDPS_DewPointDepression_IsbL-0550_RLatLon0.09_PT061H.grib2 2026-04-26 21:39 364K
20260426T18Z_MSC_RDPS_DewPointDepression_IsbL-0600_RLatLon0.09_PT061H.grib2 2026-04-26 21:39 370K
20260426T18Z_MSC_RDPS_DewPointDepression_IsbL-0650_RLatLon0.09_PT061H.grib2 2026-04-26 21:39 375K
20260426T18Z_MSC_RDPS_DewPointDepression_IsbL-0700_RLatLon0.09_PT061H.grib2 2026-04-26 21:39 389K
20260426T18Z_MSC_RDPS_DewPointDepression_IsbL-0750_RLatLon0.09_PT061H.grib2 2026-04-26 21:39 409K
20260426T18Z_MSC_RDPS_DewPointDepression_IsbL-0800_RLatLon0.09_PT061H.grib2 2026-04-26 21:39 437K
20260426T18Z_MSC_RDPS_DewPointDepression_IsbL-0850_RLatLon0.09_PT061H.grib2 2026-04-26 21:39 466K
20260426T18Z_MSC_RDPS_DewPointDepression_IsbL-0875_RLatLon0.09_PT061H.grib2 2026-04-26 21:39 467K
20260426T18Z_MSC_RDPS_DewPointDepression_IsbL-0900_RLatLon0.09_PT061H.grib2 2026-04-26 21:39 461K
20260426T18Z_MSC_RDPS_DewPointDepression_IsbL-0925_RLatLon0.09_PT061H.grib2 2026-04-26 21:39 448K
20260426T18Z_MSC_RDPS_DewPointDepression_IsbL-0950_RLatLon0.09_PT061H.grib2 2026-04-26 21:39 440K
20260426T18Z_MSC_RDPS_DewPointDepression_IsbL-0970_RLatLon0.09_PT061H.grib2 2026-04-26 21:39 429K
20260426T18Z_MSC_RDPS_DewPointDepression_IsbL-0985_RLatLon0.09_PT061H.grib2 2026-04-26 21:39 423K
20260426T18Z_MSC_RDPS_DewPointDepression_IsbL-1000_RLatLon0.09_PT061H.grib2 2026-04-26 21:39 417K
20260426T18Z_MSC_RDPS_DewPointDepression_IsbL-1015_RLatLon0.09_PT061H.grib2 2026-04-26 21:39 410K
20260426T18Z_MSC_RDPS_DewPoint_AGL-2m_RLatLon0.09_PT061H.grib2 2026-04-26 21:39 305K
20260426T18Z_MSC_RDPS_DownwardLongwaveRadiationFlux-Accum_Sfc_RLatLon0.09_PT061H.grib2 2026-04-26 21:39 411K
20260426T18Z_MSC_RDPS_DownwardShortwaveRadiationFlux-Accum_NTAtm_RLatLon0.09_PT061H.grib2 2026-04-26 21:39 97K
20260426T18Z_MSC_RDPS_DownwardShortwaveRadiationFlux-Accum_Sfc_RLatLon0.09_PT061H.grib2 2026-04-26 21:39 601K
20260426T18Z_MSC_RDPS_FreezingRain-Accum1h_Sfc_RLatLon0.09_PT061H.grib2 2026-04-26 21:39 37K
20260426T18Z_MSC_RDPS_FreezingRain-Accum_Sfc_RLatLon0.09_PT061H.grib2 2026-04-26 21:39 188K
20260426T18Z_MSC_RDPS_GeopotentialHeight_IsbL-0001_RLatLon0.09_PT061H.grib2 2026-04-26 21:39 237K
20260426T18Z_MSC_RDPS_GeopotentialHeight_IsbL-0005_RLatLon0.09_PT061H.grib2 2026-04-26 21:39 337K
20260426T18Z_MSC_RDPS_GeopotentialHeight_IsbL-0010_RLatLon0.09_PT061H.grib2 2026-04-26 21:39 304K
20260426T18Z_MSC_RDPS_GeopotentialHeight_IsbL-0020_RLatLon0.09_PT061H.grib2 2026-04-26 21:39 304K
20260426T18Z_MSC_RDPS_GeopotentialHeight_IsbL-0030_RLatLon0.09_PT061H.grib2 2026-04-26 21:39 305K
20260426T18Z_MSC_RDPS_GeopotentialHeight_IsbL-0050_RLatLon0.09_PT061H.grib2 2026-04-26 21:39 341K
20260426T18Z_MSC_RDPS_GeopotentialHeight_IsbL-0100_RLatLon0.09_PT061H.grib2 2026-04-26 21:39 288K
20260426T18Z_MSC_RDPS_GeopotentialHeight_IsbL-0150_RLatLon0.09_PT061H.grib2 2026-04-26 21:39 231K
20260426T18Z_MSC_RDPS_GeopotentialHeight_IsbL-0175_RLatLon0.09_PT061H.grib2 2026-04-26 21:39 265K
20260426T18Z_MSC_RDPS_GeopotentialHeight_IsbL-0200_RLatLon0.09_PT061H.grib2 2026-04-26 21:39 267K
20260426T18Z_MSC_RDPS_GeopotentialHeight_IsbL-0225_RLatLon0.09_PT061H.grib2 2026-04-26 21:39 268K
20260426T18Z_MSC_RDPS_GeopotentialHeight_IsbL-0250_RLatLon0.09_PT061H.grib2 2026-04-26 21:39 268K
20260426T18Z_MSC_RDPS_GeopotentialHeight_IsbL-0275_RLatLon0.09_PT061H.grib2 2026-04-26 21:39 266K
20260426T18Z_MSC_RDPS_GeopotentialHeight_IsbL-0300_RLatLon0.09_PT061H.grib2 2026-04-26 21:39 267K
20260426T18Z_MSC_RDPS_GeopotentialHeight_IsbL-0350_RLatLon0.09_PT061H.grib2 2026-04-26 21:39 232K
20260426T18Z_MSC_RDPS_GeopotentialHeight_IsbL-0400_RLatLon0.09_PT061H.grib2 2026-04-26 21:39 229K
20260426T18Z_MSC_RDPS_GeopotentialHeight_IsbL-0450_RLatLon0.09_PT061H.grib2 2026-04-26 21:39 297K
20260426T18Z_MSC_RDPS_GeopotentialHeight_IsbL-0500_RLatLon0.09_PT061H.grib2 2026-04-26 21:39 292K
20260426T18Z_MSC_RDPS_GeopotentialHeight_IsbL-0550_RLatLon0.09_PT061H.grib2 2026-04-26 21:39 288K
20260426T18Z_MSC_RDPS_GeopotentialHeight_IsbL-0600_RLatLon0.09_PT061H.grib2 2026-04-26 21:39 283K
20260426T18Z_MSC_RDPS_GeopotentialHeight_IsbL-0650_RLatLon0.09_PT061H.grib2 2026-04-26 21:39 254K
20260426T18Z_MSC_RDPS_GeopotentialHeight_IsbL-0700_RLatLon0.09_PT061H.grib2 2026-04-26 21:39 252K
20260426T18Z_MSC_RDPS_GeopotentialHeight_IsbL-0750_RLatLon0.09_PT061H.grib2 2026-04-26 21:39 334K
20260426T18Z_MSC_RDPS_GeopotentialHeight_IsbL-0800_RLatLon0.09_PT061H.grib2 2026-04-26 21:39 342K
20260426T18Z_MSC_RDPS_GeopotentialHeight_IsbL-0850_RLatLon0.09_PT061H.grib2 2026-04-26 21:39 353K
20260426T18Z_MSC_RDPS_GeopotentialHeight_IsbL-0875_RLatLon0.09_PT061H.grib2 2026-04-26 21:39 357K
20260426T18Z_MSC_RDPS_GeopotentialHeight_IsbL-0900_RLatLon0.09_PT061H.grib2 2026-04-26 21:39 361K
20260426T18Z_MSC_RDPS_GeopotentialHeight_IsbL-0925_RLatLon0.09_PT061H.grib2 2026-04-26 21:39 363K
20260426T18Z_MSC_RDPS_GeopotentialHeight_IsbL-0950_RLatLon0.09_PT061H.grib2 2026-04-26 21:39 366K
20260426T18Z_MSC_RDPS_GeopotentialHeight_IsbL-0970_RLatLon0.09_PT061H.grib2 2026-04-26 21:39 373K
20260426T18Z_MSC_RDPS_GeopotentialHeight_IsbL-0985_RLatLon0.09_PT061H.grib2 2026-04-26 21:39 380K
20260426T18Z_MSC_RDPS_GeopotentialHeight_IsbL-1000_RLatLon0.09_PT061H.grib2 2026-04-26 21:39 391K
20260426T18Z_MSC_RDPS_GeopotentialHeight_IsbL-1015_RLatLon0.09_PT061H.grib2 2026-04-26 21:39 403K
20260426T18Z_MSC_RDPS_Humidex_Sfc_RLatLon0.09_PT061H.grib2 2026-04-26 21:39 2.4M
20260426T18Z_MSC_RDPS_IcePellets-Accum1h_Sfc_RLatLon0.09_PT061H.grib2 2026-04-26 21:39 6.9K
20260426T18Z_MSC_RDPS_IcePellets-Accum_Sfc_RLatLon0.09_PT061H.grib2 2026-04-26 21:39 33K
20260426T18Z_MSC_RDPS_KIndex_Sfc_RLatLon0.09_PT061H.grib2 2026-04-26 21:39 2.5M
20260426T18Z_MSC_RDPS_LatentHeatNetFlux_Sfc_RLatLon0.09_PT061H.grib2 2026-04-26 21:39 400K
20260426T18Z_MSC_RDPS_LiftedIndex-MU-VT_IsbL-0500_RLatLon0.09_PT061H.grib2 2026-04-26 21:39 2.4M
20260426T18Z_MSC_RDPS_NetLongwaveRadiationFlux-Accum_Sfc_RLatLon0.09_PT061H.grib2 2026-04-26 21:39 587K
20260426T18Z_MSC_RDPS_NetShortwaveRadiationFlux-Accum_Sfc_RLatLon0.09_PT061H.grib2 2026-04-26 21:39 604K
20260426T18Z_MSC_RDPS_PlanetaryBoundaryLayerHeight_Sfc_RLatLon0.09_PT061H.grib2 2026-04-26 21:39 1.1M
20260426T18Z_MSC_RDPS_Precip-Accum1h_Sfc_RLatLon0.09_PT061H.grib2 2026-04-26 21:39 1.2M
20260426T18Z_MSC_RDPS_Precip-Accum_Sfc_RLatLon0.09_PT061H.grib2 2026-04-26 21:39 2.1M
20260426T18Z_MSC_RDPS_PrecipRate_Sfc_RLatLon0.09_PT061H.grib2 2026-04-26 21:39 177K
20260426T18Z_MSC_RDPS_PrecipType-Instant_Sfc_RLatLon0.09_PT061H.grib2 2026-04-26 21:39 553K
20260426T18Z_MSC_RDPS_Pressure-Trend3h_Sfc_RLatLon0.09_PT061H.grib2 2026-04-26 21:39 1.2M
20260426T18Z_MSC_RDPS_Pressure_MSL_RLatLon0.09_PT061H.grib2 2026-04-26 21:39 291K
20260426T18Z_MSC_RDPS_Pressure_PVU-1.5_RLatLon0.09_PT061H.grib2 2026-04-26 21:39 2.5M
20260426T18Z_MSC_RDPS_Pressure_PVU-1_RLatLon0.09_PT061H.grib2 2026-04-26 21:39 2.4M
20260426T18Z_MSC_RDPS_Pressure_PVU-2_RLatLon0.09_PT061H.grib2 2026-04-26 21:39 2.4M
20260426T18Z_MSC_RDPS_Pressure_Sfc_RLatLon0.09_PT061H.grib2 2026-04-26 21:39 499K
20260426T18Z_MSC_RDPS_RadiativeTemp_Sfc_RLatLon0.09_PT061H.grib2 2026-04-26 21:39 297K
20260426T18Z_MSC_RDPS_Rain-Accum1h_Sfc_RLatLon0.09_PT061H.grib2 2026-04-26 21:39 569K
20260426T18Z_MSC_RDPS_Rain-Accum_Sfc_RLatLon0.09_PT061H.grib2 2026-04-26 21:39 1.7M
20260426T18Z_MSC_RDPS_RelativeHumidity_AGL-2m_RLatLon0.09_PT061H.grib2 2026-04-26 21:39 1.0M
20260426T18Z_MSC_RDPS_RelativeHumidity_IsbL-0010_RLatLon0.09_PT061H.grib2 2026-04-26 21:39 618K
20260426T18Z_MSC_RDPS_RelativeHumidity_IsbL-0020_RLatLon0.09_PT061H.grib2 2026-04-26 21:39 643K
20260426T18Z_MSC_RDPS_RelativeHumidity_IsbL-0030_RLatLon0.09_PT061H.grib2 2026-04-26 21:39 539K
20260426T18Z_MSC_RDPS_RelativeHumidity_IsbL-0050_RLatLon0.09_PT061H.grib2 2026-04-26 21:39 331K
20260426T18Z_MSC_RDPS_RelativeHumidity_IsbL-0100_RLatLon0.09_PT061H.grib2 2026-04-26 21:39 281K
20260426T18Z_MSC_RDPS_RelativeHumidity_IsbL-0150_RLatLon0.09_PT061H.grib2 2026-04-26 21:39 422K
20260426T18Z_MSC_RDPS_RelativeHumidity_IsbL-0175_RLatLon0.09_PT061H.grib2 2026-04-26 21:39 492K
20260426T18Z_MSC_RDPS_RelativeHumidity_IsbL-0200_RLatLon0.09_PT061H.grib2 2026-04-26 21:39 564K
20260426T18Z_MSC_RDPS_RelativeHumidity_IsbL-0225_RLatLon0.09_PT061H.grib2 2026-04-26 21:39 627K
20260426T18Z_MSC_RDPS_RelativeHumidity_IsbL-0250_RLatLon0.09_PT061H.grib2 2026-04-26 21:39 694K
20260426T18Z_MSC_RDPS_RelativeHumidity_IsbL-0275_RLatLon0.09_PT061H.grib2 2026-04-26 21:39 722K
20260426T18Z_MSC_RDPS_RelativeHumidity_IsbL-0300_RLatLon0.09_PT061H.grib2 2026-04-26 21:39 763K
20260426T18Z_MSC_RDPS_RelativeHumidity_IsbL-0350_RLatLon0.09_PT061H.grib2 2026-04-26 21:39 781K
20260426T18Z_MSC_RDPS_RelativeHumidity_IsbL-0400_RLatLon0.09_PT061H.grib2 2026-04-26 21:39 790K
20260426T18Z_MSC_RDPS_RelativeHumidity_IsbL-0450_RLatLon0.09_PT061H.grib2 2026-04-26 21:39 792K
20260426T18Z_MSC_RDPS_RelativeHumidity_IsbL-0500_RLatLon0.09_PT061H.grib2 2026-04-26 21:39 799K
20260426T18Z_MSC_RDPS_RelativeHumidity_IsbL-0550_RLatLon0.09_PT061H.grib2 2026-04-26 21:39 816K
20260426T18Z_MSC_RDPS_RelativeHumidity_IsbL-0600_RLatLon0.09_PT061H.grib2 2026-04-26 21:39 829K
20260426T18Z_MSC_RDPS_RelativeHumidity_IsbL-0650_RLatLon0.09_PT061H.grib2 2026-04-26 21:39 839K
20260426T18Z_MSC_RDPS_RelativeHumidity_IsbL-0700_RLatLon0.09_PT061H.grib2 2026-04-26 21:39 875K
20260426T18Z_MSC_RDPS_RelativeHumidity_IsbL-0750_RLatLon0.09_PT061H.grib2 2026-04-26 21:39 908K
20260426T18Z_MSC_RDPS_RelativeHumidity_IsbL-0800_RLatLon0.09_PT061H.grib2 2026-04-26 21:39 969K
20260426T18Z_MSC_RDPS_RelativeHumidity_IsbL-0850_RLatLon0.09_PT061H.grib2 2026-04-26 21:39 1.0M
20260426T18Z_MSC_RDPS_RelativeHumidity_IsbL-0875_RLatLon0.09_PT061H.grib2 2026-04-26 21:39 1.0M
20260426T18Z_MSC_RDPS_RelativeHumidity_IsbL-0900_RLatLon0.09_PT061H.grib2 2026-04-26 21:39 1.1M
20260426T18Z_MSC_RDPS_RelativeHumidity_IsbL-0925_RLatLon0.09_PT061H.grib2 2026-04-26 21:39 1.1M
20260426T18Z_MSC_RDPS_RelativeHumidity_IsbL-0950_RLatLon0.09_PT061H.grib2 2026-04-26 21:39 1.1M
20260426T18Z_MSC_RDPS_RelativeHumidity_IsbL-0970_RLatLon0.09_PT061H.grib2 2026-04-26 21:39 1.0M
20260426T18Z_MSC_RDPS_RelativeHumidity_IsbL-0985_RLatLon0.09_PT061H.grib2 2026-04-26 21:39 1.0M
20260426T18Z_MSC_RDPS_RelativeHumidity_IsbL-1000_RLatLon0.09_PT061H.grib2 2026-04-26 21:39 1.0M
20260426T18Z_MSC_RDPS_RelativeHumidity_IsbL-1015_RLatLon0.09_PT061H.grib2 2026-04-26 21:39 1.0M
20260426T18Z_MSC_RDPS_Runoff-Accum_Sfc_RLatLon0.09_PT061H.grib2 2026-04-26 21:39 56K
20260426T18Z_MSC_RDPS_SWEATIndex_Sfc_RLatLon0.09_PT061H.grib2 2026-04-26 21:39 2.4M
20260426T18Z_MSC_RDPS_SeeingIndex_EAtm_RLatLon0.09_PT061H.grib2 2026-04-26 21:39 1.0M
20260426T18Z_MSC_RDPS_SensibleHeatNetFlux_Sfc_RLatLon0.09_PT061H.grib2 2026-04-26 21:39 292K
20260426T18Z_MSC_RDPS_ShowalterIndex_IsbL-0500_RLatLon0.09_PT061H.grib2 2026-04-26 21:39 2.6M
20260426T18Z_MSC_RDPS_SkyTransparencyIndex_EAtm_RLatLon0.09_PT061H.grib2 2026-04-26 21:39 684K
20260426T18Z_MSC_RDPS_Snow-Accum1h_Sfc_RLatLon0.09_PT061H.grib2 2026-04-26 21:39 562K
20260426T18Z_MSC_RDPS_Snow-Accum_Sfc_RLatLon0.09_PT061H.grib2 2026-04-26 21:39 834K
20260426T18Z_MSC_RDPS_SnowDensity_Sfc_RLatLon0.09_PT061H.grib2 2026-04-26 21:39 187K
20260426T18Z_MSC_RDPS_SnowDepth_Sfc_RLatLon0.09_PT061H.grib2 2026-04-26 21:39 706K
20260426T18Z_MSC_RDPS_SoilTemp_DBS-0to10cm_RLatLon0.09_PT061H.grib2 2026-04-26 21:39 240K
20260426T18Z_MSC_RDPS_SoilTemp_Sfc_RLatLon0.09_PT061H.grib2 2026-04-26 21:39 279K
20260426T18Z_MSC_RDPS_SoilVolumetricIceContent_Sfc_RLatLon0.09_PT061H.grib2 2026-04-26 21:39 166K
20260426T18Z_MSC_RDPS_SoilVolumetricWaterContent_DBS-0to10cm_RLatLon0.09_PT061H.grib2 2026-04-26 21:39 265K
20260426T18Z_MSC_RDPS_SoilVolumetricWaterContent_DBS-0to1cm_RLatLon0.09_PT061H.grib2 2026-04-26 21:39 341K
20260426T18Z_MSC_RDPS_SpecificHumidity_AGL-120m_RLatLon0.09_PT061H.grib2 2026-04-26 21:39 481K
20260426T18Z_MSC_RDPS_SpecificHumidity_AGL-2m_RLatLon0.09_PT061H.grib2 2026-04-26 21:39 643K
20260426T18Z_MSC_RDPS_SpecificHumidity_AGL-40m_RLatLon0.09_PT061H.grib2 2026-04-26 21:39 485K
20260426T18Z_MSC_RDPS_SpecificHumidity_AGL-80m_RLatLon0.09_PT061H.grib2 2026-04-26 21:39 483K
20260426T18Z_MSC_RDPS_SpecificHumidity_IsbL-0001_RLatLon0.09_PT061H.grib2 2026-04-26 21:39 335K
20260426T18Z_MSC_RDPS_SpecificHumidity_IsbL-0005_RLatLon0.09_PT061H.grib2 2026-04-26 21:39 352K
20260426T18Z_MSC_RDPS_SpecificHumidity_IsbL-0010_RLatLon0.09_PT061H.grib2 2026-04-26 21:39 394K
20260426T18Z_MSC_RDPS_SpecificHumidity_IsbL-0020_RLatLon0.09_PT061H.grib2 2026-04-26 21:39 380K
20260426T18Z_MSC_RDPS_SpecificHumidity_IsbL-0030_RLatLon0.09_PT061H.grib2 2026-04-26 21:39 441K
20260426T18Z_MSC_RDPS_SpecificHumidity_IsbL-0050_RLatLon0.09_PT061H.grib2 2026-04-26 21:39 482K
20260426T18Z_MSC_RDPS_SpecificHumidity_IsbL-0100_RLatLon0.09_PT061H.grib2 2026-04-26 21:39 422K
20260426T18Z_MSC_RDPS_SpecificHumidity_IsbL-0150_RLatLon0.09_PT061H.grib2 2026-04-26 21:39 489K
20260426T18Z_MSC_RDPS_SpecificHumidity_IsbL-0175_RLatLon0.09_PT061H.grib2 2026-04-26 21:39 446K
20260426T18Z_MSC_RDPS_SpecificHumidity_IsbL-0200_RLatLon0.09_PT061H.grib2 2026-04-26 21:39 460K
20260426T18Z_MSC_RDPS_SpecificHumidity_IsbL-0225_RLatLon0.09_PT061H.grib2 2026-04-26 21:39 461K
20260426T18Z_MSC_RDPS_SpecificHumidity_IsbL-0250_RLatLon0.09_PT061H.grib2 2026-04-26 21:39 562K
20260426T18Z_MSC_RDPS_SpecificHumidity_IsbL-0275_RLatLon0.09_PT061H.grib2 2026-04-26 21:39 476K
20260426T18Z_MSC_RDPS_SpecificHumidity_IsbL-0300_RLatLon0.09_PT061H.grib2 2026-04-26 21:39 544K
20260426T18Z_MSC_RDPS_SpecificHumidity_IsbL-0350_RLatLon0.09_PT061H.grib2 2026-04-26 21:39 562K
20260426T18Z_MSC_RDPS_SpecificHumidity_IsbL-0400_RLatLon0.09_PT061H.grib2 2026-04-26 21:39 515K
20260426T18Z_MSC_RDPS_SpecificHumidity_IsbL-0450_RLatLon0.09_PT061H.grib2 2026-04-26 21:39 565K
20260426T18Z_MSC_RDPS_SpecificHumidity_IsbL-0500_RLatLon0.09_PT061H.grib2 2026-04-26 21:39 503K
20260426T18Z_MSC_RDPS_SpecificHumidity_IsbL-0550_RLatLon0.09_PT061H.grib2 2026-04-26 21:39 577K
20260426T18Z_MSC_RDPS_SpecificHumidity_IsbL-0600_RLatLon0.09_PT061H.grib2 2026-04-26 21:39 626K
20260426T18Z_MSC_RDPS_SpecificHumidity_IsbL-0650_RLatLon0.09_PT061H.grib2 2026-04-26 21:39 544K
20260426T18Z_MSC_RDPS_SpecificHumidity_IsbL-0700_RLatLon0.09_PT061H.grib2 2026-04-26 21:39 588K
20260426T18Z_MSC_RDPS_SpecificHumidity_IsbL-0750_RLatLon0.09_PT061H.grib2 2026-04-26 21:39 640K
20260426T18Z_MSC_RDPS_SpecificHumidity_IsbL-0800_RLatLon0.09_PT061H.grib2 2026-04-26 21:39 715K
20260426T18Z_MSC_RDPS_SpecificHumidity_IsbL-0850_RLatLon0.09_PT061H.grib2 2026-04-26 21:39 792K
20260426T18Z_MSC_RDPS_SpecificHumidity_IsbL-0875_RLatLon0.09_PT061H.grib2 2026-04-26 21:39 818K
20260426T18Z_MSC_RDPS_SpecificHumidity_IsbL-0900_RLatLon0.09_PT061H.grib2 2026-04-26 21:39 832K
20260426T18Z_MSC_RDPS_SpecificHumidity_IsbL-0925_RLatLon0.09_PT061H.grib2 2026-04-26 21:39 833K
20260426T18Z_MSC_RDPS_SpecificHumidity_IsbL-0950_RLatLon0.09_PT061H.grib2 2026-04-26 21:39 831K
20260426T18Z_MSC_RDPS_SpecificHumidity_IsbL-0970_RLatLon0.09_PT061H.grib2 2026-04-26 21:39 819K
20260426T18Z_MSC_RDPS_SpecificHumidity_IsbL-0985_RLatLon0.09_PT061H.grib2 2026-04-26 21:39 671K
20260426T18Z_MSC_RDPS_SpecificHumidity_IsbL-1000_RLatLon0.09_PT061H.grib2 2026-04-26 21:39 664K
20260426T18Z_MSC_RDPS_SpecificHumidity_IsbL-1015_RLatLon0.09_PT061H.grib2 2026-04-26 21:39 655K
20260426T18Z_MSC_RDPS_SpecificHumidity_Sfc_RLatLon0.09_PT061H.grib2 2026-04-26 21:39 290K
20260426T18Z_MSC_RDPS_StormRelativeHelicity_EtaL-10000_RLatLon0.09_PT061H.grib2 2026-04-26 21:39 1.1M
20260426T18Z_MSC_RDPS_StormSeverityIndex_EtaL-10000_RLatLon0.09_PT061H.grib2 2026-04-26 21:39 1.1M
20260426T18Z_MSC_RDPS_Thickness_IsbL-0850to0700_RLatLon0.09_PT061H.grib2 2026-04-26 21:39 175K
20260426T18Z_MSC_RDPS_Thickness_IsbL-1000to0500_RLatLon0.09_PT061H.grib2 2026-04-26 21:39 198K
20260426T18Z_MSC_RDPS_Thickness_IsbL-1000to0850_RLatLon0.09_PT061H.grib2 2026-04-26 21:39 258K
20260426T18Z_MSC_RDPS_TotalCloudCover_Sfc_RLatLon0.09_PT061H.grib2 2026-04-26 21:39 655K
20260426T18Z_MSC_RDPS_TotalTotalsIndex_Sfc_RLatLon0.09_PT061H.grib2 2026-04-26 21:39 2.4M
20260426T18Z_MSC_RDPS_UVIndex-ClearSky_Sfc_RLatLon0.09_PT061H.grib2 2026-04-26 21:39 121K
20260426T18Z_MSC_RDPS_UVIndex_Sfc_RLatLon0.09_PT061H.grib2 2026-04-26 21:39 187K
20260426T18Z_MSC_RDPS_UpwardLongwaveRadiationFlux_NTAtm_RLatLon0.09_PT061H.grib2 2026-04-26 21:39 488K
20260426T18Z_MSC_RDPS_UpwardShortwaveRadiationFlux_NTAtm_RLatLon0.09_PT061H.grib2 2026-04-26 21:39 127K
20260426T18Z_MSC_RDPS_VerticalVelocity_IsbL-0250_RLatLon0.09_PT061H.grib2 2026-04-26 21:39 587K
20260426T18Z_MSC_RDPS_VerticalVelocity_IsbL-0500_RLatLon0.09_PT061H.grib2 2026-04-26 21:39 544K
20260426T18Z_MSC_RDPS_VerticalVelocity_IsbL-0700_RLatLon0.09_PT061H.grib2 2026-04-26 21:39 611K
20260426T18Z_MSC_RDPS_VerticalVelocity_IsbL-0850_RLatLon0.09_PT061H.grib2 2026-04-26 21:39 697K
20260426T18Z_MSC_RDPS_VerticalWindShear_EtaL-6500_RLatLon0.09_PT061H.grib2 2026-04-26 21:39 1.2M
20260426T18Z_MSC_RDPS_WindChill_Sfc_RLatLon0.09_PT061H.grib2 2026-04-26 21:39 1.1M
20260426T18Z_MSC_RDPS_WindDir_AGL-10m_RLatLon0.09_PT061H.grib2 2026-04-26 21:39 972K
20260426T18Z_MSC_RDPS_WindDir_AGL-120m_RLatLon0.09_PT061H.grib2 2026-04-26 21:39 609K
20260426T18Z_MSC_RDPS_WindDir_AGL-40m_RLatLon0.09_PT061H.grib2 2026-04-26 21:39 640K
20260426T18Z_MSC_RDPS_WindDir_AGL-80m_RLatLon0.09_PT061H.grib2 2026-04-26 21:39 621K
20260426T18Z_MSC_RDPS_WindDir_IsbL-0001_RLatLon0.09_PT061H.grib2 2026-04-26 21:39 325K
20260426T18Z_MSC_RDPS_WindDir_IsbL-0005_RLatLon0.09_PT061H.grib2 2026-04-26 21:39 364K
20260426T18Z_MSC_RDPS_WindDir_IsbL-0010_RLatLon0.09_PT061H.grib2 2026-04-26 21:39 391K
20260426T18Z_MSC_RDPS_WindDir_IsbL-0020_RLatLon0.09_PT061H.grib2 2026-04-26 21:39 422K
20260426T18Z_MSC_RDPS_WindDir_IsbL-0030_RLatLon0.09_PT061H.grib2 2026-04-26 21:39 420K
20260426T18Z_MSC_RDPS_WindDir_IsbL-0050_RLatLon0.09_PT061H.grib2 2026-04-26 21:39 419K
20260426T18Z_MSC_RDPS_WindDir_IsbL-0100_RLatLon0.09_PT061H.grib2 2026-04-26 21:39 423K
20260426T18Z_MSC_RDPS_WindDir_IsbL-0150_RLatLon0.09_PT061H.grib2 2026-04-26 21:39 418K
20260426T18Z_MSC_RDPS_WindDir_IsbL-0175_RLatLon0.09_PT061H.grib2 2026-04-26 21:39 438K
20260426T18Z_MSC_RDPS_WindDir_IsbL-0200_RLatLon0.09_PT061H.grib2 2026-04-26 21:39 450K
20260426T18Z_MSC_RDPS_WindDir_IsbL-0225_RLatLon0.09_PT061H.grib2 2026-04-26 21:39 452K
20260426T18Z_MSC_RDPS_WindDir_IsbL-0250_RLatLon0.09_PT061H.grib2 2026-04-26 21:39 453K
20260426T18Z_MSC_RDPS_WindDir_IsbL-0275_RLatLon0.09_PT061H.grib2 2026-04-26 21:39 474K
20260426T18Z_MSC_RDPS_WindDir_IsbL-0300_RLatLon0.09_PT061H.grib2 2026-04-26 21:39 468K
20260426T18Z_MSC_RDPS_WindDir_IsbL-0350_RLatLon0.09_PT061H.grib2 2026-04-26 21:39 491K
20260426T18Z_MSC_RDPS_WindDir_IsbL-0400_RLatLon0.09_PT061H.grib2 2026-04-26 21:39 508K
20260426T18Z_MSC_RDPS_WindDir_IsbL-0450_RLatLon0.09_PT061H.grib2 2026-04-26 21:39 522K
20260426T18Z_MSC_RDPS_WindDir_IsbL-0500_RLatLon0.09_PT061H.grib2 2026-04-26 21:39 539K
20260426T18Z_MSC_RDPS_WindDir_IsbL-0550_RLatLon0.09_PT061H.grib2 2026-04-26 21:39 555K
20260426T18Z_MSC_RDPS_WindDir_IsbL-0600_RLatLon0.09_PT061H.grib2 2026-04-26 21:39 584K
20260426T18Z_MSC_RDPS_WindDir_IsbL-0650_RLatLon0.09_PT061H.grib2 2026-04-26 21:39 624K
20260426T18Z_MSC_RDPS_WindDir_IsbL-0700_RLatLon0.09_PT061H.grib2 2026-04-26 21:39 664K
20260426T18Z_MSC_RDPS_WindDir_IsbL-0750_RLatLon0.09_PT061H.grib2 2026-04-26 21:39 709K
20260426T18Z_MSC_RDPS_WindDir_IsbL-0800_RLatLon0.09_PT061H.grib2 2026-04-26 21:39 776K
20260426T18Z_MSC_RDPS_WindDir_IsbL-0850_RLatLon0.09_PT061H.grib2 2026-04-26 21:39 853K
20260426T18Z_MSC_RDPS_WindDir_IsbL-0875_RLatLon0.09_PT061H.grib2 2026-04-26 21:39 886K
20260426T18Z_MSC_RDPS_WindDir_IsbL-0900_RLatLon0.09_PT061H.grib2 2026-04-26 21:39 903K
20260426T18Z_MSC_RDPS_WindDir_IsbL-0925_RLatLon0.09_PT061H.grib2 2026-04-26 21:39 915K
20260426T18Z_MSC_RDPS_WindDir_IsbL-0950_RLatLon0.09_PT061H.grib2 2026-04-26 21:39 917K
20260426T18Z_MSC_RDPS_WindDir_IsbL-0970_RLatLon0.09_PT061H.grib2 2026-04-26 21:39 926K
20260426T18Z_MSC_RDPS_WindDir_IsbL-0985_RLatLon0.09_PT061H.grib2 2026-04-26 21:39 934K
20260426T18Z_MSC_RDPS_WindDir_IsbL-1000_RLatLon0.09_PT061H.grib2 2026-04-26 21:39 947K
20260426T18Z_MSC_RDPS_WindDir_IsbL-1015_RLatLon0.09_PT061H.grib2 2026-04-26 21:39 964K
20260426T18Z_MSC_RDPS_WindGust-Max_AGL-10m_RLatLon0.09_PT061H.grib2 2026-04-26 21:39 943K
20260426T18Z_MSC_RDPS_WindGust-Min_AGL-10m_RLatLon0.09_PT061H.grib2 2026-04-26 21:39 967K
20260426T18Z_MSC_RDPS_WindGust_AGL-10m_RLatLon0.09_PT061H.grib2 2026-04-26 21:39 1.0M
20260426T18Z_MSC_RDPS_WindSpeed_AGL-10m_RLatLon0.09_PT061H.grib2 2026-04-26 21:39 833K
20260426T18Z_MSC_RDPS_WindSpeed_AGL-120m_RLatLon0.09_PT061H.grib2 2026-04-26 21:39 548K
20260426T18Z_MSC_RDPS_WindSpeed_AGL-40m_RLatLon0.09_PT061H.grib2 2026-04-26 21:39 538K
20260426T18Z_MSC_RDPS_WindSpeed_AGL-80m_RLatLon0.09_PT061H.grib2 2026-04-26 21:39 548K
20260426T18Z_MSC_RDPS_WindSpeed_IsbL-0001_RLatLon0.09_PT061H.grib2 2026-04-26 21:39 256K
20260426T18Z_MSC_RDPS_WindSpeed_IsbL-0005_RLatLon0.09_PT061H.grib2 2026-04-26 21:39 299K
20260426T18Z_MSC_RDPS_WindSpeed_IsbL-0010_RLatLon0.09_PT061H.grib2 2026-04-26 21:39 310K
20260426T18Z_MSC_RDPS_WindSpeed_IsbL-0020_RLatLon0.09_PT061H.grib2 2026-04-26 21:39 326K
20260426T18Z_MSC_RDPS_WindSpeed_IsbL-0030_RLatLon0.09_PT061H.grib2 2026-04-26 21:39 323K
20260426T18Z_MSC_RDPS_WindSpeed_IsbL-0050_RLatLon0.09_PT061H.grib2 2026-04-26 21:39 462K
20260426T18Z_MSC_RDPS_WindSpeed_IsbL-0100_RLatLon0.09_PT061H.grib2 2026-04-26 21:39 490K
20260426T18Z_MSC_RDPS_WindSpeed_IsbL-0150_RLatLon0.09_PT061H.grib2 2026-04-26 21:39 389K
20260426T18Z_MSC_RDPS_WindSpeed_IsbL-0175_RLatLon0.09_PT061H.grib2 2026-04-26 21:39 418K
20260426T18Z_MSC_RDPS_WindSpeed_IsbL-0200_RLatLon0.09_PT061H.grib2 2026-04-26 21:39 455K
20260426T18Z_MSC_RDPS_WindSpeed_IsbL-0225_RLatLon0.09_PT061H.grib2 2026-04-26 21:39 460K
20260426T18Z_MSC_RDPS_WindSpeed_IsbL-0250_RLatLon0.09_PT061H.grib2 2026-04-26 21:39 464K
20260426T18Z_MSC_RDPS_WindSpeed_IsbL-0275_RLatLon0.09_PT061H.grib2 2026-04-26 21:39 483K
20260426T18Z_MSC_RDPS_WindSpeed_IsbL-0300_RLatLon0.09_PT061H.grib2 2026-04-26 21:39 479K
20260426T18Z_MSC_RDPS_WindSpeed_IsbL-0350_RLatLon0.09_PT061H.grib2 2026-04-26 21:39 488K
20260426T18Z_MSC_RDPS_WindSpeed_IsbL-0400_RLatLon0.09_PT061H.grib2 2026-04-26 21:39 471K
20260426T18Z_MSC_RDPS_WindSpeed_IsbL-0450_RLatLon0.09_PT061H.grib2 2026-04-26 21:39 469K
20260426T18Z_MSC_RDPS_WindSpeed_IsbL-0500_RLatLon0.09_PT061H.grib2 2026-04-26 21:39 467K
20260426T18Z_MSC_RDPS_WindSpeed_IsbL-0550_RLatLon0.09_PT061H.grib2 2026-04-26 21:39 583K
20260426T18Z_MSC_RDPS_WindSpeed_IsbL-0600_RLatLon0.09_PT061H.grib2 2026-04-26 21:39 590K
20260426T18Z_MSC_RDPS_WindSpeed_IsbL-0650_RLatLon0.09_PT061H.grib2 2026-04-26 21:39 607K
20260426T18Z_MSC_RDPS_WindSpeed_IsbL-0700_RLatLon0.09_PT061H.grib2 2026-04-26 21:39 629K
20260426T18Z_MSC_RDPS_WindSpeed_IsbL-0750_RLatLon0.09_PT061H.grib2 2026-04-26 21:39 656K
20260426T18Z_MSC_RDPS_WindSpeed_IsbL-0800_RLatLon0.09_PT061H.grib2 2026-04-26 21:39 700K
20260426T18Z_MSC_RDPS_WindSpeed_IsbL-0850_RLatLon0.09_PT061H.grib2 2026-04-26 21:39 761K
20260426T18Z_MSC_RDPS_WindSpeed_IsbL-0875_RLatLon0.09_PT061H.grib2 2026-04-26 21:39 830K
20260426T18Z_MSC_RDPS_WindSpeed_IsbL-0900_RLatLon0.09_PT061H.grib2 2026-04-26 21:39 846K
20260426T18Z_MSC_RDPS_WindSpeed_IsbL-0925_RLatLon0.09_PT061H.grib2 2026-04-26 21:39 857K
20260426T18Z_MSC_RDPS_WindSpeed_IsbL-0950_RLatLon0.09_PT061H.grib2 2026-04-26 21:39 858K
20260426T18Z_MSC_RDPS_WindSpeed_IsbL-0970_RLatLon0.09_PT061H.grib2 2026-04-26 21:39 859K
20260426T18Z_MSC_RDPS_WindSpeed_IsbL-0985_RLatLon0.09_PT061H.grib2 2026-04-26 21:39 849K
20260426T18Z_MSC_RDPS_WindSpeed_IsbL-1000_RLatLon0.09_PT061H.grib2 2026-04-26 21:39 842K
20260426T18Z_MSC_RDPS_WindSpeed_IsbL-1015_RLatLon0.09_PT061H.grib2 2026-04-26 21:39 833K
20260426T18Z_MSC_RDPS_WindU_AGL-10m_RLatLon0.09_PT061H.grib2 2026-04-26 21:39 427K
20260426T18Z_MSC_RDPS_WindU_AGL-120m_RLatLon0.09_PT061H.grib2 2026-04-26 21:39 416K
20260426T18Z_MSC_RDPS_WindU_AGL-40m_RLatLon0.09_PT061H.grib2 2026-04-26 21:39 418K
20260426T18Z_MSC_RDPS_WindU_AGL-80m_RLatLon0.09_PT061H.grib2 2026-04-26 21:39 417K
20260426T18Z_MSC_RDPS_WindU_IsbL-0001_RLatLon0.09_PT061H.grib2 2026-04-26 21:39 295K
20260426T18Z_MSC_RDPS_WindU_IsbL-0005_RLatLon0.09_PT061H.grib2 2026-04-26 21:39 333K
20260426T18Z_MSC_RDPS_WindU_IsbL-0010_RLatLon0.09_PT061H.grib2 2026-04-26 21:39 301K
20260426T18Z_MSC_RDPS_WindU_IsbL-0020_RLatLon0.09_PT061H.grib2 2026-04-26 21:39 357K
20260426T18Z_MSC_RDPS_WindU_IsbL-0030_RLatLon0.09_PT061H.grib2 2026-04-26 21:39 353K
20260426T18Z_MSC_RDPS_WindU_IsbL-0050_RLatLon0.09_PT061H.grib2 2026-04-26 21:39 385K
20260426T18Z_MSC_RDPS_WindU_IsbL-0100_RLatLon0.09_PT061H.grib2 2026-04-26 21:39 347K
20260426T18Z_MSC_RDPS_WindU_IsbL-0150_RLatLon0.09_PT061H.grib2 2026-04-26 21:39 406K
20260426T18Z_MSC_RDPS_WindU_IsbL-0175_RLatLon0.09_PT061H.grib2 2026-04-26 21:39 430K
20260426T18Z_MSC_RDPS_WindU_IsbL-0200_RLatLon0.09_PT061H.grib2 2026-04-26 21:39 446K
20260426T18Z_MSC_RDPS_WindU_IsbL-0225_RLatLon0.09_PT061H.grib2 2026-04-26 21:39 451K
20260426T18Z_MSC_RDPS_WindU_IsbL-0250_RLatLon0.09_PT061H.grib2 2026-04-26 21:39 354K
20260426T18Z_MSC_RDPS_WindU_IsbL-0275_RLatLon0.09_PT061H.grib2 2026-04-26 21:39 369K
20260426T18Z_MSC_RDPS_WindU_IsbL-0300_RLatLon0.09_PT061H.grib2 2026-04-26 21:39 363K
20260426T18Z_MSC_RDPS_WindU_IsbL-0350_RLatLon0.09_PT061H.grib2 2026-04-26 21:39 371K
20260426T18Z_MSC_RDPS_WindU_IsbL-0400_RLatLon0.09_PT061H.grib2 2026-04-26 21:39 474K
20260426T18Z_MSC_RDPS_WindU_IsbL-0450_RLatLon0.09_PT061H.grib2 2026-04-26 21:39 471K
20260426T18Z_MSC_RDPS_WindU_IsbL-0500_RLatLon0.09_PT061H.grib2 2026-04-26 21:39 471K
20260426T18Z_MSC_RDPS_WindU_IsbL-0550_RLatLon0.09_PT061H.grib2 2026-04-26 21:39 471K
20260426T18Z_MSC_RDPS_WindU_IsbL-0600_RLatLon0.09_PT061H.grib2 2026-04-26 21:39 460K
20260426T18Z_MSC_RDPS_WindU_IsbL-0650_RLatLon0.09_PT061H.grib2 2026-04-26 21:39 477K
20260426T18Z_MSC_RDPS_WindU_IsbL-0700_RLatLon0.09_PT061H.grib2 2026-04-26 21:39 498K
20260426T18Z_MSC_RDPS_WindU_IsbL-0750_RLatLon0.09_PT061H.grib2 2026-04-26 21:39 522K
20260426T18Z_MSC_RDPS_WindU_IsbL-0800_RLatLon0.09_PT061H.grib2 2026-04-26 21:39 562K
20260426T18Z_MSC_RDPS_WindU_IsbL-0850_RLatLon0.09_PT061H.grib2 2026-04-26 21:39 616K
20260426T18Z_MSC_RDPS_WindU_IsbL-0875_RLatLon0.09_PT061H.grib2 2026-04-26 21:39 636K
20260426T18Z_MSC_RDPS_WindU_IsbL-0900_RLatLon0.09_PT061H.grib2 2026-04-26 21:39 649K
20260426T18Z_MSC_RDPS_WindU_IsbL-0925_RLatLon0.09_PT061H.grib2 2026-04-26 21:39 656K
20260426T18Z_MSC_RDPS_WindU_IsbL-0950_RLatLon0.09_PT061H.grib2 2026-04-26 21:39 652K
20260426T18Z_MSC_RDPS_WindU_IsbL-0970_RLatLon0.09_PT061H.grib2 2026-04-26 21:39 650K
20260426T18Z_MSC_RDPS_WindU_IsbL-0985_RLatLon0.09_PT061H.grib2 2026-04-26 21:39 644K
20260426T18Z_MSC_RDPS_WindU_IsbL-1000_RLatLon0.09_PT061H.grib2 2026-04-26 21:39 779K
20260426T18Z_MSC_RDPS_WindU_IsbL-1015_RLatLon0.09_PT061H.grib2 2026-04-26 21:39 773K
20260426T18Z_MSC_RDPS_WindV_AGL-10m_RLatLon0.09_PT061H.grib2 2026-04-26 21:39 428K
20260426T18Z_MSC_RDPS_WindV_AGL-120m_RLatLon0.09_PT061H.grib2 2026-04-26 21:39 532K
20260426T18Z_MSC_RDPS_WindV_AGL-40m_RLatLon0.09_PT061H.grib2 2026-04-26 21:39 534K
20260426T18Z_MSC_RDPS_WindV_AGL-80m_RLatLon0.09_PT061H.grib2 2026-04-26 21:39 532K
20260426T18Z_MSC_RDPS_WindV_IsbL-0001_RLatLon0.09_PT061H.grib2 2026-04-26 21:39 247K
20260426T18Z_MSC_RDPS_WindV_IsbL-0005_RLatLon0.09_PT061H.grib2 2026-04-26 21:39 290K
20260426T18Z_MSC_RDPS_WindV_IsbL-0010_RLatLon0.09_PT061H.grib2 2026-04-26 21:39 301K
20260426T18Z_MSC_RDPS_WindV_IsbL-0020_RLatLon0.09_PT061H.grib2 2026-04-26 21:39 319K
20260426T18Z_MSC_RDPS_WindV_IsbL-0030_RLatLon0.09_PT061H.grib2 2026-04-26 21:39 317K
20260426T18Z_MSC_RDPS_WindV_IsbL-0050_RLatLon0.09_PT061H.grib2 2026-04-26 21:39 349K
20260426T18Z_MSC_RDPS_WindV_IsbL-0100_RLatLon0.09_PT061H.grib2 2026-04-26 21:39 340K
20260426T18Z_MSC_RDPS_WindV_IsbL-0150_RLatLon0.09_PT061H.grib2 2026-04-26 21:39 403K
20260426T18Z_MSC_RDPS_WindV_IsbL-0175_RLatLon0.09_PT061H.grib2 2026-04-26 21:39 333K
20260426T18Z_MSC_RDPS_WindV_IsbL-0200_RLatLon0.09_PT061H.grib2 2026-04-26 21:39 347K
20260426T18Z_MSC_RDPS_WindV_IsbL-0225_RLatLon0.09_PT061H.grib2 2026-04-26 21:39 375K
20260426T18Z_MSC_RDPS_WindV_IsbL-0250_RLatLon0.09_PT061H.grib2 2026-04-26 21:39 377K
20260426T18Z_MSC_RDPS_WindV_IsbL-0275_RLatLon0.09_PT061H.grib2 2026-04-26 21:39 390K
20260426T18Z_MSC_RDPS_WindV_IsbL-0300_RLatLon0.09_PT061H.grib2 2026-04-26 21:39 386K
20260426T18Z_MSC_RDPS_WindV_IsbL-0350_RLatLon0.09_PT061H.grib2 2026-04-26 21:39 370K
20260426T18Z_MSC_RDPS_WindV_IsbL-0400_RLatLon0.09_PT061H.grib2 2026-04-26 21:39 370K
20260426T18Z_MSC_RDPS_WindV_IsbL-0450_RLatLon0.09_PT061H.grib2 2026-04-26 21:39 472K
20260426T18Z_MSC_RDPS_WindV_IsbL-0500_RLatLon0.09_PT061H.grib2 2026-04-26 21:39 471K
20260426T18Z_MSC_RDPS_WindV_IsbL-0550_RLatLon0.09_PT061H.grib2 2026-04-26 21:39 470K
20260426T18Z_MSC_RDPS_WindV_IsbL-0600_RLatLon0.09_PT061H.grib2 2026-04-26 21:39 476K
20260426T18Z_MSC_RDPS_WindV_IsbL-0650_RLatLon0.09_PT061H.grib2 2026-04-26 21:39 491K
20260426T18Z_MSC_RDPS_WindV_IsbL-0700_RLatLon0.09_PT061H.grib2 2026-04-26 21:39 510K
20260426T18Z_MSC_RDPS_WindV_IsbL-0750_RLatLon0.09_PT061H.grib2 2026-04-26 21:39 533K
20260426T18Z_MSC_RDPS_WindV_IsbL-0800_RLatLon0.09_PT061H.grib2 2026-04-26 21:39 570K
20260426T18Z_MSC_RDPS_WindV_IsbL-0850_RLatLon0.09_PT061H.grib2 2026-04-26 21:39 622K
20260426T18Z_MSC_RDPS_WindV_IsbL-0875_RLatLon0.09_PT061H.grib2 2026-04-26 21:39 641K
20260426T18Z_MSC_RDPS_WindV_IsbL-0900_RLatLon0.09_PT061H.grib2 2026-04-26 21:39 645K
20260426T18Z_MSC_RDPS_WindV_IsbL-0925_RLatLon0.09_PT061H.grib2 2026-04-26 21:39 653K
20260426T18Z_MSC_RDPS_WindV_IsbL-0950_RLatLon0.09_PT061H.grib2 2026-04-26 21:39 653K
20260426T18Z_MSC_RDPS_WindV_IsbL-0970_RLatLon0.09_PT061H.grib2 2026-04-26 21:39 653K
20260426T18Z_MSC_RDPS_WindV_IsbL-0985_RLatLon0.09_PT061H.grib2 2026-04-26 21:39 786K
20260426T18Z_MSC_RDPS_WindV_IsbL-1000_RLatLon0.09_PT061H.grib2 2026-04-26 21:39 779K
20260426T18Z_MSC_RDPS_WindV_IsbL-1015_RLatLon0.09_PT061H.grib2 2026-04-26 21:39 818K